Weather in Vychegodskij

Russia / Arkhangel'skaya Oblast'     61°14′52″N   46°52′57″E
temp.,
°C
wind,
m/s
gust,
m/s
humid.,
%
clouds,
%
prec.,
mm/h
press.,
hPa
HPBL,
m
23 april, fri
fri2300:00+4ssw51289100 0.0 1017541
03:00+4ssw399299 0.0 1018457
06:00+4s379174 0.0 1019234
09:00+9s36702 0.0 1020582
12:00+14ssw475330 0.1 10191695
15:00+14s4754100 0.1 10191143
18:00+13s595711 0.0 1019922
21:00+9sse4137211 0.0 1020495
24 april, sat
sat2400:00+8sse4127687 0.0 1019353
03:00+7se4127989 0.0 1019314
06:00+7se4117289 0.0 1018340
09:00+11se4956100 0.0 10171016
12:00+11se5855100 0.0 10171292
15:00+12ese5749100 0.0 10151614
18:00+11ese5958100 0.0 10131224
21:00+8ese41071100 0.0 1012692
25 april, sun
sun2500:00+7e41175100 0.0 1010671
03:00+6e4988100 0.3 10081075
06:00+6e4893100 0.5 1006997
09:00+5e4996100 1.1 1005912
12:00+5e4996100 0.2 1004774
15:00+5e4995100 0.6 1003827
18:00+5e3893100 0.2 1002892
21:00+4e3697100 0.5 1002874
26 april, mon
mon2600:00+4ene2597100 0.6 1001863
03:00+4ese1398100 1.6 1000740
06:00+4se1293100 0.4 1000381
09:00+4ssw1291100 0.6 1001356
12:00+4sw2390100 0.1 1002593
15:00+3ssw3597100 0.8 1003539
18:00+2sw4997100 1.4 1004523
21:00+2sw4997100 2.3 1004804
27 april, tue
tue2700:00+2sw4994100 0.3 1005844
03:00+2sw499099 0.4 1005719
06:00+2sw3118858 0.0 1005680
09:00+6sw486749 0.0 10051269
12:00+9sw474499 0.1 10032257
15:00+10sw4732100 0.1 10022504
18:00+8ssw244698 0.0 1002230
21:00+3wnw22765 0.2 100215